Starlink 32925

operational
NORAD ID: 63091 Int'l Des: 2025-037 Owner: SPXS Country: US Constellation: starlink
LEOCIRCULAR

About Starlink 32925

Description loading...

Live Position

Loading 3D Globe...

Upcoming Passes

Altitude History

Altitude vs Time

uPlot chart will show altitude changes over time

Two-Line Element Set

1 63091U 25037Q 25305.42701403 .00000466 00000-0 46819-4 0 9990
2 63091 70.0005 317.6866 0003582 268.6714 91.4035 14.98329967 39330
Epoch: Nov 1, 2025 • Age: 18 hours

Current Status

Altitude 585.9 km
Velocity 7.57 km/s
Sub-Earth Point 69.39°N, 75.37°W
Launch Date Feb 23, 2025
Age 0.6 years
Type internet

Technical Details

Classification Payload
Mass 730.00 kg
Dry Mass 700.00 kg
Total Mass 730.00 kg
Length 0.30 m
Diameter 4.10 m
Span 29.00 m
Shape Box + pan
Manufacturer SPXS
Bus Type Starlink V2M
Phase Status In Orbit
Owner/State SPXS/US

Large Constellations

Loading constellations...